Flag for U.S.A. Weather past 2 weeks in Fresno, California, U.S.A.

Now
84 °F

Clear.


Feels Like: 82 °F
Forecast: 71 / 98 °F
Wind: 8 mph from Northwest

Location: Fresno Air Terminal

Current Time: Sep 16, 2014 at 11:15:39 PM

Latest Report: Sep 16, 2014 at 10:53 PM


Visibility: 10 mi

Pressure: 29.77 "Hg

Humidity: 33%

Dew point: 52 °F

Location of FresnoLocation

Historic Weather in Fresno — Graph

°F

Fresno temperature yesterday

Maximum temperature yesterday: 103 °F (at 3:53 PM)
Minimum temperature yesterday: 73 °F (at 6:53 AM)
Average temperature yesterday: 88 °F

Past Weeks' High & Low Weather Summary

 TemperatureHumidityPressure
High103 °F (Sep 2, 2:53 PM)66% (Sep 5, 6:53 AM)29.95 "Hg (Sep 5, 6:53 AM)
Low63 °F (Sep 9, 5:53 AM)8% (Sep 6, 5:53 PM)29.61 "Hg (Sep 3, 6:53 PM)
Average84 °F33%29.78 "Hg
* Reported Sep 1 9:53 PM — Sep 16 9:53 PM, Fresno, Weather by CustomWeather, © 2014

Note: Actual official high and low records may vary slightly from our data, if they occured in-between our weather recording intervals... More about our weather records

Advertising

Fresno weather history for previous 24 hours

 ConditionsComfort  
Time TempWeatherWind HumidityBarometerVisibility
9:53 PM
Sep 16
85 °FClear.8 mph35%29.77 "Hg10 mi
8:53 PM86 °FClear.8 mph36%29.77 "Hg10 mi
7:53 PM89 °FSunny.10 mph31%29.75 "Hg10 mi
6:53 PM94 °FSunny.7 mph23%29.74 "Hg10 mi
5:53 PM97 °FSunny.6 mph19%29.73 "Hg10 mi
4:53 PM98 °FSunny.No wind17%29.74 "Hg10 mi
3:53 PM97 °FPassing clouds.5 mph18%29.76 "Hg10 mi
2:53 PM95 °FPassing clouds.6 mph19%29.79 "Hg10 mi
1:53 PM93 °FPassing clouds.No wind22%29.81 "Hg9 mi
12:53 PM88 °FPassing clouds.No wind28%29.84 "Hg10 mi
11:53 AM84 °FPassing clouds.No wind33%29.87 "Hg10 mi
10:53 AM78 °FSunny.No wind40%29.89 "Hg10 mi
9:53 AM74 °FSunny.No wind45%29.90 "Hg10 mi
8:53 AM71 °FSunny.7 mph49%29.89 "Hg10 mi
7:53 AM69 °FSunny.7 mph53%29.89 "Hg10 mi
6:53 AM68 °FPassing clouds.7 mph55%29.88 "Hg10 mi
5:53 AM69 °FPassing clouds.10 mph53%29.87 "Hg10 mi
4:53 AM70 °FClear.8 mph53%29.85 "Hg10 mi
3:53 AM72 °FClear.12 mph49%29.85 "Hg10 mi
2:53 AM74 °FClear.10 mph46%29.85 "Hg10 mi
1:53 AM76 °FClear.14 mph43%29.85 "Hg10 mi
12:53 AM78 °FClear.12 mph42%29.85 "Hg10 mi
11:53 PM
Sep 15
81 °FClear.12 mph38%29.84 "Hg10 mi
Weather by CustomWeather, © 2014

See weather overviewHow to use our weather pages